AJ5TT Weather Reports


time (UTC)temp
C
wind
direction
speed
KPH
gust
KPH
rain 1hr
cm
rain 24hr
cm
rain mn
cm
humidity
%
barometer
mb
20260506040052 25 180 3.2 11.3 0.00 0.00 0.00 89 1010.4
20260506034554 25 200 6.4 12.9 0.00 0.00 0.00 89 1010.3
20260506033105 25 187 6.4 12.9 0.00 0.00 0.00 89 1010.2
20260506031557 24 110 3.2 14.5 0.00 0.00 0.00 89 1010.2
20260506030054 25 191 3.2 11.3 0.00 0.00 0.00 90 1010.1
20260506024553 24 172 3.2 9.7 0.00 0.00 0.00 90 1009.9
20260506023052 24 165 3.2 8.0 0.00 0.00 0.00 89 1009.7
20260506021555 24 98 3.2 8.0 0.00 0.00 0.00 89 1009.6
20260506020055 25 190 3.2 9.7 0.00 0.00 0.00 89 1009.3
20260506014557 25 149 1.6 8.0 0.00 0.00 0.00 88 1009.1
20260506013056 25 211 3.2 11.3 0.00 0.00 0.00 88 1008.9
20260506011553 25 199 4.8 12.9 0.00 0.00 0.00 87 1008.5
20260506010053 25 223 4.8 14.5 0.00 0.00 0.00 87 1008.4
20260506004556 25 197 3.2 16.1 0.00 0.00 0.00 86 1008.1
20260506003058 25 157 4.8 11.3 0.00 0.00 0.00 86 1008.1
20260506001609 25 192 3.2 11.3 0.00 0.00 0.00 85 1008.2
20260506000055 26 186 4.8 12.9 0.00 0.00 0.00 84 1008.1
20260505234559 26 208 4.8 14.5 0.00 0.00 0.00 84 1008.2
20260505233058 26 159 6.4 17.7 0.00 0.00 0.00 83 1008.3
20260505231557 26 209 6.4 17.7 0.00 0.00 0.00 82 1008.4
20260505230110 26 183 8.0 22.5 0.00 0.00 0.00 81 1008.4
20260505224555 26 243 6.4 19.3 0.00 0.00 0.00 80 1008.3
20260505223100 26 216 6.4 16.1 0.00 0.00 0.00 80 1008.5
20260505221555 26 189 6.4 17.7 0.00 0.00 0.00 81 1008.5
20260505220052 26 188 4.8 16.1 0.00 0.00 0.00 82 1008.5
20260505214605 26 173 4.8 19.3 0.00 0.00 0.00 83 1008.8
20260505213059 26 179 6.4 27.4 0.00 0.00 0.00 82 1009.0
20260505211611 27 142 6.4 17.7 0.00 0.00 0.00 80 1009.0
20260505210106 26 211 8.0 19.3 0.00 0.00 0.00 82 1009.0
20260505204553 26 193 8.0 16.1 0.00 0.00 0.00 81 1009.5
20260505203058 27 144 4.8 22.5 0.00 0.00 0.00 81 1009.7
20260505201606 26 232 6.4 16.1 0.00 0.00 0.00 82 1009.9
20260505200053 26 142 4.8 12.9 0.00 0.00 0.00 82 1010.0
20260505194555 27 146 6.4 16.1 0.00 0.00 0.00 81 1010.1
20260505193054 27 150 6.4 14.5 0.00 0.00 0.00 80 1010.1
20260505191557 27 178 6.4 22.5 0.00 0.00 0.00 80 1010.2
20260505190113 26 233 4.8 12.9 0.00 0.00 0.00 84 1010.2
20260505184605 26 209 6.4 16.1 0.00 0.00 0.00 82 1010.2
20260505183055 26 205 6.4 20.9 0.00 0.00 0.00 83 1010.4
20260505181558 26 184 6.4 14.5 0.00 0.00 0.00 84 1010.5
20260505180057 26 80 4.8 19.3 0.00 0.00 0.00 82 1010.6
20260505174604 26 213 6.4 16.1 0.00 0.00 0.00 81 1010.7
20260505173103 26 218 6.4 14.5 0.00 0.00 0.00 82 1010.9
20260505171600 25 184 6.4 17.7 0.00 0.00 0.00 83 1011.0
20260505170108 25 217 8.0 17.7 0.00 0.00 0.00 84 1011.1
20260505164558 26 194 4.8 12.9 0.00 0.00 0.00 82 1011.0
20260505163107 26 180 6.4 16.1 0.00 0.00 0.00 81 1010.9
20260505161556 26 207 6.4 16.1 0.00 0.00 0.00 81 1010.9
20260505160104 25 197 4.8 17.7 0.00 0.00 0.00 83 1010.8
20260505153108 26 212 6.4 16.1 0.00 0.00 0.00 80 1010.6
20260505151559 26 215 12.9 27.4 0.00 0.00 0.00 80 1010.3
20260505150113 26 243 8.0 20.9 0.00 0.00 0.00 81 1010.3
20260505140124 24 181 3.2 11.3 0.00 0.00 0.00 86 1010.6
20260505124606 23 157 3.2 11.3 0.00 0.00 0.00 88 1010.1
20260505123112 23 142 4.8 12.9 0.00 0.00 0.00 88 1010.0
20260505121555 23 132 3.2 11.3 0.00 0.00 0.00 88 1010.0
20260505120059 22 204 1.6 6.4 0.00 0.00 0.00 88 1010.2
20260505114605 22 205 3.2 8.0 0.00 0.00 0.00 88 1010.0
20260505113058 22 169 1.6 6.4 0.00 0.00 0.00 88 1009.7
20260505111601 22 217 1.6 8.0 0.00 0.00 0.00 88 1010.1
20260505101553 22 180 3.2 9.7 0.00 0.00 0.00 87 1010.0
20260505100104 22 200 1.6 8.0 0.00 0.00 0.00 87 1009.9
20260505094607 22 183 3.2 6.4 0.00 0.00 0.00 87 1010.0
20260505093056 22 221 1.6 6.4 0.00 0.00 0.00 87 1010.2
20260505091556 22 192 1.6 8.0 0.00 0.00 0.00 87 1010.1
20260505090110 22 215 4.8 11.3 0.00 0.00 0.00 87 1010.3
20260505084555 22 144 4.8 11.3 0.00 0.00 0.00 86 1010.1
20260505083107 22 213 3.2 17.7 0.00 0.00 0.00 85 1010.1
20260505081558 22 200 4.8 11.3 0.00 0.00 0.00 85 1010.2
20260505080056 22 226 3.2 9.7 0.00 0.00 0.00 85 1010.4
20260505074558 22 215 3.2 8.0 0.00 0.00 0.00 85 1010.4
20260505073100 22 193 3.2 12.9 0.00 0.00 0.00 85 1010.6
20260505071557 22 136 1.6 9.7 0.00 0.00 0.00 84 1010.8
20260505070056 22 198 3.2 9.7 0.00 0.00 0.00 84 1010.9
20260505064552 22 194 4.8 9.7 0.00 0.00 0.00 84 1011.2
20260505063059 22 192 4.8 12.9 0.00 0.00 0.00 85 1011.5
20260505061550 21 182 3.2 9.7 0.00 0.00 0.00 85 1011.4
20260505060058 21 203 1.6 12.9 0.00 0.00 0.00 84 1011.4
20260505054600 21 176 1.6 6.4 0.00 0.00 0.00 84 1011.6
20260505053055 21 196 1.6 6.4 0.00 0.00 0.00 84 1011.6
20260505051550 21 200 1.6 6.4 0.00 0.00 0.00 85 1011.7
20260505050126 21 195 1.6 6.4 0.00 0.00 0.00 85 1011.6
20260505041605 21 168 1.6 4.8 0.00 0.00 0.00 84 1012.1